Santa Maria, CA

6:50 PM PST on February 18, 2018 (GMT -0800)
Santa Maria Public Airport / Captain G. Allan Hancock Field

Weather History for KSMX - October, 2014

Change the Weather History Date:

Friday, October 3, 2014

  Actual Average Record
Temperature  
Mean Temperature 78 °F 62 °F  
Max Temperature 100 °F 74 °F 100 °F (1985)
Min Temperature 56 °F 51 °F 39 °F (1973)
Degree Days  
Heating Degree Days 0 4  
Month to date heating degree days 0 12  
Since 1 July heating degree days 1 229  
Cooling Degree Days 13 1  
Month to date cooling degree days 35 3  
Year to date cooling degree days 472 85  
Growing Degree Days 28 (Base 50)    
Moisture  
Dew Point 34 °F    
Average Humidity 28    
Maximum Humidity 51    
Minimum Humidity 5    
Precipitation  
Precipitation 0.00 in 0.01 in 0.08 in (1981)
Month to date precipitation 0.00 0.03  
Year to date precipitation 4.01 9.93  
Since 1 July precipitation T  
Sea Level Pressure  
Sea Level Pressure 30.01 in    
Wind  
Wind Speed 5 mph (South)    
Max Wind Speed 16 mph    
Max Gust Speed 24 mph    
Visibility 10 miles    
Events      
T = Trace of Precipitation, MM = Missing Value Source: NWS Daily Summary

Daily Weather History Graph

Daily Weather History Graph

Search for Another Location

Airport or City:

Trip Planner

Search our weather history database for the weather conditions in past years. The results will help you decide how hot, cold, wet, or windy it might be!

Date:

Astronomy

Oct. 03, 2014 Rise Set
Actual Time 6:58 AM PDT 6:42 PM PDT
Civil Twilight 6:32 AM PDT 7:08 PM PDT
Nautical Twilight 6:03 AM PDT 7:37 PM PDT
Astronomical Twilight 5:34 AM PDT 8:06 PM PDT
Moon 3:29 PM PDT (10/3) 1:36 AM PDT (10/3)
Length of Visible Light 12h 35m
Length of Day
11h 44m
Waxing Gibbous, 72% of the Moon is Illuminated
Oct 3
Waxing Gibbous
Oct 8
Full
Oct 15
Last Quarter
Oct 23
New
Oct 30
First Quarter

Hourly Weather History & Observations

Time (PDT) Temp. Dew Point Humidity Pressure Visibility Wind Dir Wind Speed Gust Speed Precip Events Conditions
12:51 AM 64.9 °F 43.0 °F 45% 30.00 in 10.0 mi Calm Calm - N/A   Clear
1:51 AM 63.0 °F 42.1 °F 46% 29.99 in 10.0 mi Calm Calm - N/A   Clear
2:51 AM 61.0 °F 41.0 °F 48% 29.99 in 10.0 mi SE 3.5 mph - N/A   Clear
3:51 AM 60.1 °F 42.1 °F 51% 29.99 in 10.0 mi Calm Calm - N/A   Clear
4:51 AM 60.1 °F 41.0 °F 49% 29.99 in 10.0 mi SE 3.5 mph - N/A   Clear
5:51 AM 57.0 °F 39.9 °F 53% 30.01 in 10.0 mi ESE 3.5 mph - N/A   Clear
6:51 AM 59.0 °F 39.9 °F 49% 30.02 in 10.0 mi Calm Calm - N/A   Clear
7:51 AM 63.0 °F 39.0 °F 41% 30.04 in 8.0 mi SE 3.5 mph - N/A   Clear
8:51 AM 75.9 °F 34.0 °F 22% 30.05 in 10.0 mi Calm Calm - N/A   Clear
9:51 AM 86.0 °F 27.0 °F 12% 30.05 in 10.0 mi Calm Calm - N/A   Clear
10:51 AM 91.9 °F 21.9 °F 8% 30.04 in 10.0 mi Variable 3.5 mph - N/A   Clear
11:51 AM 97.0 °F 16.0 °F 5% 30.03 in 10.0 mi NW 5.8 mph - N/A   Clear
12:51 PM 99.0 °F 27.0 °F 8% 30.01 in 10.0 mi NW 12.7 mph - N/A   Clear
1:51 PM 98.1 °F 18.0 °F 6% 29.99 in 10.0 mi WSW 11.5 mph - N/A   Clear
2:51 PM 99.0 °F 17.1 °F 5% 29.99 in 10.0 mi West 12.7 mph 24.2 mph N/A   Clear
3:51 PM 93.9 °F 33.1 °F 12% 29.99 in 10.0 mi NNW 12.7 mph - 0.00 in   Clear
4:51 PM 89.1 °F 33.1 °F 14% 29.99 in 10.0 mi NNW 12.7 mph - N/A   Scattered Clouds
5:51 PM 82.9 °F 37.0 °F 19% 30.00 in 10.0 mi WNW 8.1 mph - N/A   Scattered Clouds
6:51 PM 77.0 °F 42.1 °F 29% 30.01 in 10.0 mi Calm Calm - N/A   Scattered Clouds
7:51 PM 73.9 °F 37.9 °F 27% 30.01 in 10.0 mi SE 5.8 mph - N/A   Clear
8:51 PM 71.1 °F 36.0 °F 28% 30.01 in 10.0 mi SSE 5.8 mph - N/A   Clear
9:51 PM 69.1 °F 36.0 °F 30% 30.02 in 10.0 mi SE 3.5 mph - N/A   Clear
10:51 PM 64.9 °F 34.0 °F 32% 30.01 in 10.0 mi SSE 4.6 mph - N/A   Clear
11:51 PM 64.9 °F 36.0 °F 34% 30.01 in 10.0 mi North - - N/A   Clear